[[{"header":{"parameterUnit":"m.s-1","parameterCategory":1,"la1":30.2992,"la2":30.254,"lo1":-89.0895,"lo2":-89.0443,"dy":0.0025,"dx":0.0025,"nx":19,"ny":19,"refTime":"2026-04-29T21:00:00:Z","depth":0,"parameterNumber":2,"parameterNumberName":"U-component_of_WINDS"},"data":[0,0,0,2.3229,2.3235,2.3591,2.3593,2.3974,2.3976,0,0,0,0,0,0,0,0,0,0,0,2.3083,2.3084,2.3228,2.3236,2.3591,2.3593,2.3973,2.3976,0,0,0,0,0,0,0,0,0,0,0,2.3082,2.3084,2.3086,2.3237,2.359,2.3593,2.3972,2.373,0,0,0,0,0,0,0,0,0,0,2.3397,2.3224,2.3084,2.3086,2.3239,2.359,2.3593,2.3719,2.3745,2.3783,0,2.3809,0,2.3899,2.3998,2.3999,0,0,0,2.3265,2.3202,2.3335,2.3086,2.3242,2.3589,2.3439,2.3734,2.3763,2.3816,2.3815,2.3831,2.3905,2.4,2.4001,2.4133,2.4132,0,0,2.3245,2.3124,2.3315,2.3352,2.3297,2.3427,2.3449,2.3753,2.3742,2.3817,2.3842,2.3911,2.4002,2.4004,2.4134,2.4133,0,0,0,2.3169,2.3109,2.3237,2.3334,2.3404,2.3437,2.3463,2.3729,2.3781,2.3846,2.3916,2.4004,2.4008,2.4135,2.4133,2.3979,0,0,0,2.3159,2.3065,2.3226,2.3155,2.3397,2.3572,2.343,2.3759,2.3798,2.3914,2.4004,2.4011,2.4136,2.4134,2.3985,2.3924,0,0,0,2.3073,2.3056,2.3094,2.3148,2.3297,2.357,2.364,2.3771,2.3839,2.3999,2.4011,2.4137,2.4134,2.3991,2.3934,2.3922,0,0,0,2.2946,2.2949,2.3089,2.312,2.3293,2.3473,2.364,2.3779,2.3898,2.4005,2.4136,2.4134,2.3993,2.394,2.3927,2.3888,2.3862,0,0,2.2882,2.2937,2.2965,2.3101,2.3225,2.3429,2.353,2.3752,2.3877,2.4039,2.4044,2.3983,2.3935,2.3923,2.3761,2.3738,0,0,0,2.2904,2.2921,2.2981,2.3091,2.3264,2.3406,2.3627,2.3709,2.3854,2.3937,2.3981,2.3956,2.3954,2.3941,2.3922,2.3927,2.4123,2.4124,2.4124,2.2635,2.2799,2.2855,2.306,2.3164,2.3394,2.3492,2.3642,2.3773,2.378,2.3828,2.371,2.369,2.3677,2.368,2.3824,2.3823,2.3823,2.3823,2.2554,2.2604,2.2783,2.2902,2.3072,2.3172,2.3392,2.3482,2.3597,2.3687,2.3694,2.3775,2.3648,2.3659,2.3813,2.3814,2.3816,2.3816,2.3817,2.2394,2.2447,2.2551,2.2727,2.2844,2.3052,2.3156,2.3308,2.3451,2.3458,2.3524,2.3527,2.3546,2.3479,2.3479,2.3479,2.3478,2.3478,2.3478,2.2185,2.2308,2.2379,2.2564,2.2655,2.2793,2.3025,2.3117,2.3258,2.336,2.3361,2.3488,2.3608,2.3632,2.3472,2.3473,2.3474,2.3474,2.3475,2.2036,2.2095,2.2203,2.2295,2.2525,2.2629,2.2825,2.3,2.3099,2.3144,2.3273,2.3338,2.3403,2.3419,2.344,2.324,2.324,2.324,2.324,2.1898,2.1949,2.2094,2.223,2.2381,2.2568,2.2681,2.2861,2.3054,2.3125,2.3177,2.3219,2.3229,2.3289,2.3308,2.3329,2.3106,2.3106,2.3106,2.1814,2.1887,2.1955,2.215,2.2342,2.2501,2.2612,2.2757,2.299,2.3104,2.3182,2.3188,2.3259,2.3274,2.3383,2.3409,2.3453,0,0]},{"header":{"parameterUnit":"m.s-1","parameterCategory":1,"la1":30.2992,"la2":30.254,"lo1":-89.0895,"lo2":-89.0443,"dy":0.0025,"dx":0.0025,"nx":19,"ny":19,"refTime":"2026-04-29T21:00:00:Z","depth":0,"parameterNumber":3,"parameterNumberName":"V-component_of_WINDS"},"data":[0,0,0,2.8561,2.8571,2.9079,2.9081,2.968,2.9685,0,0,0,0,0,0,0,0,0,0,0,2.8377,2.838,2.856,2.8572,2.9078,2.9081,2.9679,2.9685,0,0,0,0,0,0,0,0,0,0,0,2.8375,2.8379,2.8382,2.8574,2.9078,2.9081,2.9678,2.9314,0,0,0,0,0,0,0,0,0,0,2.883,2.8626,2.8378,2.8382,2.8576,2.9077,2.9081,2.9297,2.9336,2.9427,0,2.9496,0,2.9599,2.9721,2.9723,0,0,0,2.8598,2.8593,2.876,2.8383,2.8581,2.9076,2.8857,2.932,2.9364,2.9479,2.9505,2.9529,2.9609,2.9725,2.9727,3.0159,3.016,0,0,2.857,2.8451,2.8729,2.8787,2.8701,2.8841,2.8873,2.9347,2.9369,2.9508,2.9544,2.9619,2.9728,2.9733,3.0158,3.0159,0,0,0,2.8472,2.843,2.8587,2.8761,2.8855,2.8855,2.8892,2.9348,2.9409,2.9551,2.9626,2.9731,2.9738,3.0158,3.0159,3.0082,0,0,0,2.8456,2.8373,2.8573,2.8505,2.8845,2.9108,2.888,2.9376,2.9434,2.9623,2.9732,2.9743,3.0157,3.0158,3.0083,3.0067,0,0,0,2.8355,2.8362,2.8423,2.8497,2.8711,2.9103,2.9192,2.9391,2.9478,2.9724,2.9745,3.0157,3.0158,3.0083,3.0068,3.0147,0,0,0,2.8214,2.8347,2.8419,2.8598,2.8706,2.9049,2.919,2.9453,2.9654,2.9734,3.0157,3.0159,3.0083,3.0069,3.0147,3.0194,3.0201,0,0,2.8316,2.8355,2.8471,2.855,2.8849,2.8982,2.9274,2.9572,2.9705,3.0001,3.0013,3.0082,3.0068,3.0147,3.0281,3.0286,0,0,0,2.8463,2.8544,2.865,2.8834,2.9063,2.926,2.9526,2.9637,2.9894,2.9831,3.0135,3.013,3.0182,3.021,3.0215,3.0268,3.0166,3.0165,3.0165,2.8438,2.86,2.8802,2.9026,2.9203,2.9476,2.9637,2.9834,2.9947,3.0015,3.0105,3.0166,3.0194,3.0198,3.0252,3.0141,3.0141,3.0141,3.0141,2.8605,2.8747,2.8893,2.9141,2.9313,2.9525,2.9794,2.9867,3.0092,3.0111,3.0165,3.0174,3.0199,3.0254,3.0136,3.0137,3.0138,3.0138,3.0138,2.8609,2.8706,2.8836,2.9121,2.9323,2.9546,2.9755,2.9905,3.0047,3.01,3.0213,3.0215,3.0238,3.0143,3.0143,3.0143,3.0143,3.0144,3.0144,2.8562,2.8713,2.8869,2.9123,2.9262,2.9465,2.9741,2.9884,3.0081,3.0174,3.0176,3.0283,3.0169,3.0139,3.0148,3.0147,3.0147,3.0146,3.0146,2.8677,2.8675,2.8915,2.9054,2.9367,2.9559,2.9746,3.0024,3.0164,3.0263,3.036,3.025,3.0302,3.03,3.0276,3.0321,3.0321,3.0321,3.0321,2.8682,2.8721,2.9003,2.9215,2.9441,2.9635,2.9906,3.0123,3.0348,3.0446,3.046,3.0441,3.0431,3.049,3.0484,3.0464,3.0556,3.0556,3.0556,2.8763,2.8831,2.9031,2.9247,2.9503,2.9721,2.9982,3.0224,3.0479,3.0569,3.0526,3.0516,3.0486,3.0468,3.0557,3.0544,3.0511,0,0]}]]